FW0248 Weather Reports


time (UTC)temp
C
wind
direction
speed
KPH
gust
KPH
rain 1hr
cm
rain 24hr
cm
rain mn
cm
humidity
%
barometer
mb
20260505180118 27 183 4.8 14.5 0.00 0.00 0.00 43 1016.5
20260505175620 27 184 3.2 14.5 0.00 0.00 0.00 44 1016.5
20260505175119 27 184 3.2 14.5 0.00 0.00 0.00 42 1016.5
20260505174616 27 184 3.2 9.7 0.00 0.00 0.00 44 1016.5
20260505174117 27 184 3.2 9.7 0.00 0.00 0.00 45 1016.5
20260505173617 27 184 3.2 9.7 0.00 0.00 0.00 46 1016.6
20260505173116 27 184 3.2 12.9 0.00 0.00 0.00 46 1016.5
20260505172616 25 184 6.4 16.1 0.00 0.00 0.00 46 1016.5
20260505172117 26 184 4.8 16.1 0.00 0.00 0.00 44 1016.5
20260505171617 27 187 3.2 14.5 0.00 0.00 0.00 46 1016.6
20260505171117 26 187 4.8 14.5 0.00 0.00 0.00 45 1016.6
20260505170614 26 187 3.2 12.9 0.00 0.00 0.00 45 1016.6
20260505170115 27 187 1.6 6.4 0.00 0.00 0.00 44 1016.7
20260505165615 27 187 1.6 9.7 0.00 0.00 0.00 45 1016.7
20260505165115 26 187 3.2 17.7 0.00 0.00 0.00 47 1016.9
20260505164612 27 187 1.6 17.7 0.00 0.00 0.00 44 1016.8
20260505164112 27 190 1.6 8.0 0.00 0.00 0.00 42 1017.1
20260505163612 27 190 1.6 8.0 0.00 0.00 0.00 44 1017.2
20260505163114 26 190 1.6 8.0 0.00 0.00 0.00 47 1017.2
20260505162614 26 190 4.8 12.9 0.00 0.00 0.00 49 1017.3
20260505162112 25 190 4.8 12.9 0.00 0.00 0.00 50 1017.4
20260505161613 25 191 3.2 11.3 0.00 0.00 0.00 54 1017.4
20260505161112 26 190 3.2 14.5 0.00 0.00 0.00 51 1017.4
20260505160613 25 190 3.2 14.5 0.00 0.00 0.00 52 1017.5
20260505160113 25 192 3.2 12.9 0.00 0.00 0.00 52 1017.5
20260505153112 24 192 3.2 9.7 0.00 0.00 0.00 58 1017.7
20260505152613 23 192 4.8 9.7 0.00 0.00 0.00 59 1017.6
20260505152112 23 192 4.8 9.7 0.00 0.00 0.00 62 1017.7
20260505151618 23 192 3.2 14.5 0.00 0.00 0.00 62 1017.7
20260505151613 23 192 3.2 14.5 0.00 0.00 0.00 62 1017.7
20260505150844 23 192 3.2 11.3 0.00 0.00 0.00 62 1017.7
20260505150110 23 192 3.2 8.0 0.00 0.00 0.00 64 1017.7
20260505140602 21 188 3.2 9.7 0.00 0.00 0.00 72 1017.6
20260505124553 15 184 1.6 4.8 0.00 0.00 0.00 85 1017.5
20260505124324 15 184 0.0 3.2 0.00 0.00 0.00 86 1017.5
20260505123553 14 185 0.0 4.8 0.00 0.00 0.00 86 1017.5
20260505123053 14 184 1.6 4.8 0.00 0.00 0.00 87 1017.5
20260505122553 14 184 1.6 4.8 0.00 0.00 0.00 87 1017.6
20260505122324 13 185 1.6 4.8 0.00 0.00 0.00 87 1017.7
20260505121826 13 185 1.6 4.8 0.00 0.00 0.00 88 1017.7
20260505121053 13 185 1.6 4.8 0.00 0.00 0.00 88 1017.6
20260505120824 13 184 1.6 3.2 0.00 0.00 0.00 88 1017.5
20260505120054 13 184 0.0 3.2 0.00 0.00 0.00 89 1017.3
20260505115822 13 184 0.0 3.2 0.00 0.00 0.00 89 1017.4
20260505115052 12 184 1.6 3.2 0.00 0.00 0.00 90 1017.3
20260505114551 12 184 1.6 3.2 0.00 0.00 0.00 90 1017.2
20260505114051 12 184 0.0 3.2 0.00 0.00 0.00 91 1017.2
20260505113552 12 184 1.6 3.2 0.00 0.00 0.00 91 1017.1
20260505113322 12 184 0.0 3.2 0.00 0.00 0.00 92 1017.1
20260505112551 -17 0.0 0.0 0.00 0.00 0.00 1017.1
20260505112049 -17 0.0 0.0 0.00 0.00 0.00 1017.2
20260505111550 -17 0.0 0.0 0.00 0.00 0.00 1017.2
20260505111048 -17 0.0 0.0 0.00 0.00 0.00 1017.1
20260505110550 -17 0.0 0.0 0.00 0.00 0.00 1017.0
20260505101940 -17 0.0 0.0 0.00 0.00 0.00 1016.8
20260505101351 -17 0.0 0.0 0.00 0.00 0.00 1016.8
20260505100847 -17 0.0 0.0 0.00 0.00 0.00 1016.6
20260505100346 -17 184 0.0 0.0 0.00 0.00 0.00 1016.7
20260505095843 -17 184 0.0 0.0 0.00 0.00 0.00 1016.6
20260505095305 12 184 0.0 4.8 0.00 0.00 0.00 87 1016.5
20260505094802 12 184 0.0 4.8 0.00 0.00 0.00 87 1016.4
20260505094301 12 184 0.0 4.8 0.00 0.00 0.00 87 1016.4
20260505093800 12 185 0.0 4.8 0.00 0.00 0.00 88 1016.3
20260505093301 12 185 0.0 1.6 0.00 0.00 0.00 88 1016.3
20260505092802 12 184 0.0 1.6 0.00 0.00 0.00 88 1016.2
20260505092300 12 185 0.0 3.2 0.00 0.00 0.00 88 1016.1
20260505091801 12 184 0.0 3.2 0.00 0.00 0.00 87 1016.0
20260505091529 12 184 1.6 3.2 0.00 0.00 0.00 87 1016.0
20260505090759 12 185 1.6 3.2 0.00 0.00 0.00 87 1015.9
20260505090258 12 185 1.6 3.2 0.00 0.00 0.00 87 1016.0
20260505085759 12 185 1.6 3.2 0.00 0.00 0.00 86 1016.0
20260505085259 12 184 1.6 3.2 0.00 0.00 0.00 86 1016.0
20260505085030 12 185 1.6 3.2 0.00 0.00 0.00 85 1016.0
20260505084259 12 184 1.6 3.2 0.00 0.00 0.00 85 1015.9
20260505083759 12 184 1.6 3.2 0.00 0.00 0.00 85 1015.9
20260505083256 12 184 1.6 3.2 0.00 0.00 0.00 84 1015.9
20260505082757 12 184 1.6 3.2 0.00 0.00 0.00 84 1015.9
20260505082257 12 184 1.6 3.2 0.00 0.00 0.00 84 1015.9
20260505081802 12 184 1.6 4.8 0.00 0.00 0.00 83 1015.9
20260505081758 12 185 1.6 3.2 0.00 0.00 0.00 83 1015.8
20260505081026 13 184 3.2 4.8 0.00 0.00 0.00 83 1015.9
20260505080252 13 185 3.2 4.8 0.00 0.00 0.00 82 1015.8
20260505075752 13 184 1.6 4.8 0.00 0.00 0.00 82 1015.9
20260505075252 13 184 1.6 4.8 0.00 0.00 0.00 81 1015.8
20260505074752 13 184 1.6 3.2 0.00 0.00 0.00 81 1015.8
20260505074253 13 185 1.6 4.8 0.00 0.00 0.00 81 1015.8
20260505073753 13 185 1.6 4.8 0.00 0.00 0.00 80 1015.8
20260505073252 13 185 1.6 6.4 0.00 0.00 0.00 80 1015.8
20260505072752 13 185 3.2 6.4 0.00 0.00 0.00 79 1015.8
20260505072252 13 185 3.2 4.8 0.00 0.00 0.00 79 1015.7
20260505072024 13 185 3.2 4.8 0.00 0.00 0.00 78 1015.7
20260505071254 13 184 3.2 4.8 0.00 0.00 0.00 78 1015.8
20260505070753 14 185 3.2 4.8 0.00 0.00 0.00 78 1015.8
20260505070524 14 185 3.2 6.4 0.00 0.00 0.00 77 1015.7
20260505065753 14 184 3.2 6.4 0.00 0.00 0.00 77 1015.6
20260505065523 14 185 3.2 4.8 0.00 0.00 0.00 76 1015.7
20260505064752 14 184 3.2 4.8 0.00 0.00 0.00 76 1015.7
20260505064253 14 184 3.2 6.4 0.00 0.00 0.00 76 1015.6
20260505063753 14 185 3.2 6.4 0.00 0.00 0.00 76 1015.7
20260505063252 14 184 3.2 6.4 0.00 0.00 0.00 76 1015.7
20260505062752 14 185 3.2 6.4 0.00 0.00 0.00 76 1015.7
20260505062252 14 185 3.2 6.4 0.00 0.00 0.00 75 1015.7
20260505061753 14 185 3.2 6.4 0.00 0.00 0.00 75 1015.6
20260505061252 14 184 3.2 4.8 0.00 0.00 0.00 75 1015.8
20260505061023 15 185 3.2 4.8 0.00 0.00 0.00 74 1015.9
20260505060253 15 184 3.2 4.8 0.00 0.00 0.00 74 1015.9
20260505055750 15 184 3.2 4.8 0.00 0.00 0.00 74 1015.9
20260505055521 15 185 3.2 4.8 0.00 0.00 0.00 73 1015.9
20260505054755 15 184 3.2 6.4 0.00 0.00 0.00 72 1015.9
20260505054750 15 184 3.2 4.8 0.00 0.00 0.00 73 1015.9
20260505053749 15 185 3.2 6.4 0.00 0.00 0.00 72 1016.0
20260505053519 15 185 3.2 6.4 0.00 0.00 0.00 72 1016.0
20260505052748 15 184 3.2 4.8 0.00 0.00 0.00 71 1016.0
20260505052520 15 184 3.2 6.4 0.00 0.00 0.00 71 1016.0
20260505051748 15 184 3.2 8.0 0.00 0.00 0.00 70 1016.0
20260505051520 15 184 3.2 8.0 0.00 0.00 0.00 70 1016.0
20260505050748 15 185 4.8 8.0 0.00 0.00 0.00 69 1016.0
20260505050246 15 184 4.8 8.0 0.00 0.00 0.00 69 1016.0
20260505041744 16 184 3.2 6.4 0.00 0.00 0.00 64 1016.1
20260505041245 16 185 3.2 8.0 0.00 0.00 0.00 63 1016.1
20260505040744 16 184 3.2 8.0 0.00 0.00 0.00 62 1016.3
20260505040244 16 184 4.8 8.0 0.00 0.00 0.00 62 1016.2
20260505035744 16 184 3.2 6.4 0.00 0.00 0.00 61 1016.2
20260505035244 16 185 3.2 9.7 0.00 0.00 0.00 61 1016.1
20260505035015 16 185 3.2 9.7 0.00 0.00 0.00 61 1016.2
20260505034244 16 185 1.6 4.8 0.00 0.00 0.00 61 1016.1
20260505033744 16 185 0.0 3.2 0.00 0.00 0.00 61 1016.0
20260505033244 16 185 0.0 1.6 0.00 0.00 0.00 61 1016.0
20260505032742 16 185 0.0 3.2 0.00 0.00 0.00 60 1016.0
20260505032242 16 185 1.6 3.2 0.00 0.00 0.00 58 1016.0
20260505031742 17 185 1.6 3.2 0.00 0.00 0.00 57 1016.1
20260505031242 17 185 1.6 3.2 0.00 0.00 0.00 57 1016.1
20260505030742 17 185 1.6 3.2 0.00 0.00 0.00 56 1016.0
20260505030242 17 184 1.6 3.2 0.00 0.00 0.00 56 1016.0
20260505025742 17 185 1.6 3.2 0.00 0.00 0.00 56 1016.0
20260505025243 17 185 1.6 3.2 0.00 0.00 0.00 56 1016.0
20260505024742 17 184 0.0 3.2 0.00 0.00 0.00 55 1015.9
20260505024242 17 184 0.0 1.6 0.00 0.00 0.00 55 1016.0
20260505023740 17 185 1.6 1.6 0.00 0.00 0.00 54 1015.9
20260505023240 17 184 1.6 3.2 0.00 0.00 0.00 54 1015.9
20260505023011 17 185 1.6 3.2 0.00 0.00 0.00 53 1015.8
20260505022241 18 185 1.6 3.2 0.00 0.00 0.00 53 1015.7
20260505022011 18 184 1.6 3.2 0.00 0.00 0.00 53 1015.7
20260505021241 18 184 1.6 3.2 0.00 0.00 0.00 52 1015.7
20260505020740 18 184 1.6 4.8 0.00 0.00 0.00 51 1015.6
20260505020240 18 184 1.6 4.8 0.00 0.00 0.00 50 1015.6
20260505015740 18 184 1.6 3.2 0.00 0.00 0.00 50 1015.4
20260505015240 18 184 1.6 3.2 0.00 0.00 0.00 49 1015.4
20260505015009 18 184 1.6 3.2 0.00 0.00 0.00 49 1015.3
20260505014238 18 185 1.6 3.2 0.00 0.00 0.00 49 1015.2
20260505013737 18 185 1.6 3.2 0.00 0.00 0.00 50 1015.2
20260505013239 18 184 0.0 3.2 0.00 0.00 0.00 50 1015.1
20260505012738 18 185 0.0 1.6 0.00 0.00 0.00 52 1015.1
20260505012238 18 184 0.0 1.6 0.00 0.00 0.00 52 1015.1
20260505011737 18 184 0.0 1.6 0.00 0.00 0.00 51 1015.0
20260505011237 19 185 0.0 1.6 0.00 0.00 0.00 50 1015.0
20260505011009 19 184 0.0 1.6 0.00 0.00 0.00 48 1014.9
20260505010237 20 184 0.0 0.0 0.00 0.00 0.00 47 1014.8
20260505005737 20 184 0.0 0.0 0.00 0.00 0.00 47 1014.8
20260505005237 20 185 0.0 1.6 0.00 0.00 0.00 46 1014.7
20260505004738 20 185 0.0 3.2 0.00 0.00 0.00 44 1014.7
20260505004238 20 184 0.0 3.2 0.00 0.00 0.00 45 1014.7
20260505003739 21 184 0.0 3.2 0.00 0.00 0.00 44 1014.7
20260505003237 21 184 0.0 3.2 0.00 0.00 0.00 44 1014.6
20260505003008 21 185 1.6 3.2 0.00 0.00 0.00 43 1014.6
20260505002235 21 185 0.0 3.2 0.00 0.00 0.00 43 1014.5
20260505001733 21 185 1.6 3.2 0.00 0.00 0.00 43 1014.6
20260505001231 22 185 1.6 4.8 0.00 0.00 0.00 43 1014.5
20260505000732 22 184 1.6 4.8 0.00 0.00 0.00 42 1014.4
20260505000230 22 184 1.6 4.8 0.00 0.00 0.00 42 1014.5
20260504235728 22 184 3.2 4.8 0.00 0.00 0.00 41 1014.5
20260504235228 22 185 3.2 12.9 0.00 0.00 0.00 41 1014.4
20260504234729 23 184 3.2 12.9 0.00 0.00 0.00 41 1014.3
20260504234225 23 185 3.2 14.5 0.00 0.00 0.00 41 1014.2
20260504233725 23 184 4.8 14.5 0.00 0.00 0.00 40 1014.2
20260504233225 23 184 4.8 12.9 0.00 0.00 0.00 41 1014.1
20260504232725 23 185 4.8 12.9 0.00 0.00 0.00 40 1014.1
20260504232224 23 183 4.8 11.3 0.00 0.00 0.00 39 1014.1
20260504231724 24 182 3.2 11.3 0.00 0.00 0.00 38 1014.0
20260504231454 24 182 3.2 8.0 0.00 0.00 0.00 37 1014.0
20260504230724 24 182 3.2 8.0 0.00 0.00 0.00 37 1014.0
20260504230224 24 180 3.2 11.3 0.00 0.00 0.00 36 1014.0
20260504225954 24 180 4.8 11.3 0.00 0.00 0.00 35 1014.0
20260504225225 25 180 4.8 11.3 0.00 0.00 0.00 35 1013.9
20260504224721 25 180 3.2 9.7 0.00 0.00 0.00 35 1013.8
20260504224222 25 180 3.2 12.9 0.00 0.00 0.00 36 1013.9
20260504223722 25 180 4.8 12.9 0.00 0.00 0.00 37 1013.9
20260504223222 25 180 3.2 12.9 0.00 0.00 0.00 36 1013.9
20260504222721 25 179 1.6 11.3 0.00 0.00 0.00 37 1013.9
20260504222226 25 179 4.8 14.5 0.00 0.00 0.00 36 1013.9
20260504222222 25 179 3.2 14.5 0.00 0.00 0.00 36 1014.0
20260504221222 26 167 3.2 9.7 0.00 0.00 0.00 34 1013.9
20260504220721 26 167 1.6 8.0 0.00 0.00 0.00 33 1013.9
20260504220222 26 167 1.6 9.7 0.00 0.00 0.00 33 1014.0
20260504215722 26 167 3.2 9.7 0.00 0.00 0.00 33 1013.9
20260504215221 26 167 3.2 12.9 0.00 0.00 0.00 34 1013.9
20260504214721 26 167 4.8 12.9 0.00 0.00 0.00 32 1013.9
20260504214221 26 167 4.8 9.7 0.00 0.00 0.00 33 1014.0
20260504213722 26 167 4.8 9.7 0.00 0.00 0.00 32 1013.9
20260504213221 26 167 3.2 16.1 0.00 0.00 0.00 31 1013.9
20260504212721 26 167 4.8 16.1 0.00 0.00 0.00 32 1014.1
20260504212221 26 167 4.8 14.5 0.00 0.00 0.00 32 1014.0
20260504211722 26 167 4.8 14.5 0.00 0.00 0.00 30 1014.0
20260504211227 26 168 4.8 12.9 0.00 0.00 0.00 31 1014.0
20260504211221 26 168 4.8 12.9 0.00 0.00 0.00 32 1014.0
20260504210222 26 173 3.2 8.0 0.00 0.00 0.00 28 1014.0
20260504205952 26 173 3.2 11.3 0.00 0.00 0.00 29 1014.1
20260504205222 26 173 4.8 12.9 0.00 0.00 0.00 31 1014.0
20260504204721 26 174 3.2 12.9 0.00 0.00 0.00 30 1014.2
20260504204218 27 175 1.6 8.0 0.00 0.00 0.00 31 1014.3
20260504203717 27 175 1.6 8.0 0.00 0.00 0.00 33 1014.3
20260504203446 26 176 3.2 11.3 0.00 0.00 0.00 34 1014.3
20260504203323 26 176 3.2 11.3 0.00 0.00 0.00 32 1014.5
20260504202215 26 175 1.6 6.4 0.00 0.00 0.00 32 1014.6
20260504201713 26 176 4.8 11.3 0.00 0.00 0.00 31 1014.6
20260504201211 25 175 6.4 11.3 0.00 0.00 0.00 31 1014.6
20260504200712 25 176 4.8 11.3 0.00 0.00 0.00 32 1014.7
20260504200443 25 175 6.4 16.1 0.00 0.00 0.00 34 1014.7
20260504195709 26 175 4.8 16.1 0.00 0.00 0.00 35 1014.8
20260504195209 26 177 4.8 12.9 0.00 0.00 0.00 33 1014.7
20260504194710 25 177 4.8 16.1 0.00 0.00 0.00 34 1014.7
20260504194209 26 178 3.2 16.1 0.00 0.00 0.00 36 1014.8
20260504193709 26 178 3.2 11.3 0.00 0.00 0.00 34 1014.9
20260504193209 26 178 4.8 14.5 0.00 0.00 0.00 32 1015.0
20260504192709 25 178 6.4 14.5 0.00 0.00 0.00 33 1015.1
20260504192207 25 178 6.4 12.9 0.00 0.00 0.00 36 1015.2
20260504191707 25 178 4.8 14.5 0.00 0.00 0.00 36 1015.2
20260504191207 25 179 4.8 14.5 0.00 0.00 0.00 35 1015.3
20260504190938 25 179 4.8 11.3 0.00 0.00 0.00 33 1015.4
20260504190208 26 179 3.2 9.7 0.00 0.00 0.00 30 1015.6
20260504185707 26 179 3.2 6.4 0.00 0.00 0.00 30 1015.6
20260504185207 26 179 3.2 8.0 0.00 0.00 0.00 32 1015.7
20260504184706 26 179 1.6 8.0 0.00 0.00 0.00 29 1015.7
20260504184205 26 179 1.6 12.9 0.00 0.00 0.00 30 1015.8
20260504183706 25 179 4.8 12.9 0.00 0.00 0.00 31 1015.8
20260504183205 25 181 4.8 12.9 0.00 0.00 0.00 33 1015.9
20260504182706 25 181 3.2 12.9 0.00 0.00 0.00 33 1016.0
20260504182205 25 181 1.6 9.7 0.00 0.00 0.00 31 1016.0
20260504181705 25 181 1.6 6.4 0.00 0.00 0.00 30 1016.2
20260504181205 26 181 3.2 11.3 0.00 0.00 0.00 31 1016.2
20260504180705 25 181 4.8 11.3 0.00 0.00 0.00 36 1016.2